Simultaneous Nadir Overpasses (SNOs) Predictions

Prediction of SNOs between LANDSAT-8 and METOP-B Satellite Orbit:

Table of predicted SNOs for the next 14.0 days since TLE Epoch: 11/18/2017
Index Date (LANDSAT-8) Time (LANDSAT-8) Lat,Lon (LANDSAT-8) SZA (LANDSAT-8 ) Date (METOP-B) Time (METOP-B) Lat,Lon (METOP-B) SZA (METOP-B ) Distance(km) Time Diff (sec)
1 11/20/2017 21:07:25 81.13, -96.93 103.30 11/20/2017 21:07:21 81.12, -97.09 103.28 2.77 4
2 11/20/2017 21:56:51 -81.15, 71.01 76.65 11/20/2017 21:58:00 -81.14, 70.82 76.64 3.23 69
3 11/23/2017 15:52:13 -81.12, 161.81 76.15 11/23/2017 15:51:04 -81.12, 161.75 76.19 1.28 69
4 11/23/2017 16:41:39 81.13, -30.49 103.87 11/23/2017 16:41:44 81.13, -30.55 103.87 0.96 5
5 11/26/2017 11:26:27 -81.12,-131.78 75.62 11/26/2017 11:25:27 -81.12,-131.68 75.64 1.67 60
6 11/26/2017 12:15:52 81.15, 36.26 104.45 11/26/2017 12:16:06 81.15, 36.37 104.46 1.89 14
7 11/29/2017 07:00:40 -81.12, -65.41 75.17 11/29/2017 06:59:50 -81.11, -65.48 75.19 1.28 50
8 11/29/2017 07:50:05 81.14, 102.60 104.90 11/29/2017 07:50:29 81.14, 102.53 104.90 1.25 24
9 12/02/2017 02:34:53 -81.13, 1.26 74.72 12/02/2017 02:34:12 -81.13, 1.46 74.71 3.29 41




NCC Satellite Simultaneous Nadir Overpasses (SNOs) Prediction Service
